Details From LIMJ - Genova Sestri
To LIRQ - Firenze
Flight Number -
Tags decoded
Created
Modified
Stats Distance 112 nm / 208 km
Max Altitude 0 ft / 0 m
Waypoints 7
Social Downloads 8
Likes 0
Share VATSIM

Download

Looking for another format? Having issues loading an existing format? Contact us
Advertisement - Login to hide

Notes

Requested: LIMJ GEN KALMO BEROK RUXOL FRZ LIRQ

Route

LIMJ GEN KALMO BEROK RUXOL FRZ LIRQ

ID Type Via Altitude (ft/m) Position (lat/lon) Dist (leg/tot) Name
O LIMJ APT - 0 / 0 44.41196 / 8.84187 - / 0 nm Genova Sestri
GEN NDB - 0 / 0 44.42389 / 9.08333 10 / 10 nm GENOVA NDB
KALMO FIX - 0 / 0 44.32167 / 9.59417 22 / 33 nm
BEROK FIX - 0 / 0 44.16556 / 10.35167 33 / 67 nm
RUXOL FIX - 0 / 0 44.11528 / 10.59306 10 / 77 nm
FRZ VOR - 0 / 0 44.02718 / 11.00331 18 / 96 nm FIRENZE VORTAC
O LIRQ APT - 0 / 0 43.80998 / 11.20512 15 / 112 nm Firenze

Altitude Profile

Advertisement - Login to hide

LIMJ

Details ICAO LIMJ (GOA)
Name Genoa Cristoforo Colombo
Region Italy
Timezone Unknown
Stats Elevation 13 ft / 4 m (AMSL)
Location 44.412000° 8.841870°
Runways 1
Magnetic Variation 2.605° E

METAR

LIMJ 140750Z 05004KT 010V090 9999 RA FEW018 BKN030 10/07 Q1008

Decode

TAF

TAF LIMJ 140500Z 1406/1506 02005KT 9999 RA BKN040 TEMPO 1410/1418 4000 SHRA

Decode

Departure Runways

ID Width Length Bearing (true/mag) Surface Threshold Overrun Markings Lighting
10 148 ft / 45 m 9,576 ft / 2,919 m 105.34° / 102.74° ASPHALT 0 ft / 0 m 197 ft / 60 m PREC-APP CENTERLINE EDGE THRESHOLD REIL-OMNI
28 148 ft / 45 m 9,576 ft / 2,919 m 285.37° / 282.76° ASPHALT 535 ft / 163 m 0 ft / 0 m PREC-APP CENTERLINE EDGE THRESHOLD SALS REIL-OMNI

LIRQ

Details ICAO LIRQ (FLR)
Name Firenze
Region Italy
Timezone Europe/Rome (UTC+1.0)
Stats Elevation 142 ft / 43 m (AMSL)
Location 43.810000° 11.205100°
Runways 1
Magnetic Variation 3.086° E

METAR

LIRQ 140750Z 23003KT 190V260 0400 R05/1400U FG BKN002 07/07 Q1008

Decode

TAF

TAF LIRQ 140500Z 1406/1506 VRB05KT 0200 FG NSC BECMG 1406/1408 8000 NSW TEMPO 1500/1506 4000 SHRA

Decode

Destination Runways

ID Width Length Bearing (true/mag) Surface Threshold Overrun Markings Lighting
05 98 ft / 30 m 5,133 ft / 1,565 m 48.11° / 45.03° ASPHALT 344 ft / 105 m 0 ft / 0 m PREC-APP EDGE THRESHOLD SSALF REIL-OMNI
23 98 ft / 30 m 5,133 ft / 1,565 m 228.12° / 225.04° ASPHALT 1,909 ft / 582 m 0 ft / 0 m PREC-APP EDGE THRESHOLD REIL-OMNI

Approach Navaids

Runway Type Ident Frequency Range Bearing (true/mag) Slope Elevation
05 DME IFZ 110.30 MHz 18 nm / 33 km - - 144 ft / 44 m (AMSL)
05 LOC-ILS IFZ 110.30 MHz 18 nm / 33 km 48.10° / 45.02 ° - 131 ft / 40 m (AMSL)
05 GS IFZ 110.30 MHz 10 nm / 19 km 47.00° / 43.91 ° 3.00° 144 ft / 44 m (AMSL)

Popular Alternatives